Location: ?ern� Novina
(50.6762°N, 14.8696°E)
Time: 14:05:04
(UTC+00:00)

Cosmos 2341 Rocket - Pass Details

Date: 03 March 2021
Orbit: 968 x 1005 km, 82.9° (Epoch: 11 April)

Event Time Altitude Azimuth Distance (km) Brightness Sun altitude
Rises 18:30:05 0° 185° (S) 3,698 7.0 -17.3°
Reaches altitude 10° 18:32:37 10° 185° (S) 2,748 6.3 -17.7°
Maximum altitude 18:38:55 85° 98° (E) 996 3.9 -18.7°
Drops below altitude 10° 18:45:13 10° 11° (N) 2,741 6.4 -19.6°
Sets 18:47:44 0° 11° (N) 3,688 7.1 -20.0°
